SJ-7                    
1 28737U 05024A   19264.89084035  .00000478  00000-0  47442-4 0  9991
2 28737  97.6755 263.9720 0035403  69.6442 290.8577 14.95890707778520
CZ-2D R/B               
1 28738U 05024B   19264.42656289  .00000235  00000-0  17413-4 0  9993
2 28738  97.4091 290.5852 0013078  42.8272 317.3975 15.11867974780622
CZ-2D DEB               
1 28739U 05024C   19263.08965284  .00002453  00000-0  15186-3 0  9991
2 28739  97.6179   7.2185 0086994 160.0593 200.4070 15.07622946763554
CZ-2D DEB               
1 28740U 05024D   19263.14754152  .00001296  00000-0  12652-3 0  9999
2 28740  97.8677  32.1855 0128560 136.8450 224.2930 14.88203522758704
CZ-2D DEB               
1 28742U 05024F   19264.38253857  .00001113  00000-0  97000-4 0  9993
2 28742  97.7675  58.7551 0109910 349.5098  10.3829 14.94522187760374
CZ-2D DEB               
1 28785U 05024G   19263.70195805  .00001182  00000-0  83535-4 0  9997
2 28785  97.8255  64.6098 0091519 262.9409  96.1402 15.03741675762037
CZ-2D DEB               
1 29217U 05024H   19263.98667268  .00001347  00000-0  10609-3 0  9999
2 29217  97.5884 344.7241 0104633 321.3694  38.0075 14.98326506759215
CZ-2D DEB               
1 31409U 05024J   19263.95454354  .00000211  00000-0  14066-4 0  9993
2 31409  97.4683 310.9208 0010813 232.1392 127.8864 15.17064378760511
CZ-2D DEB               
1 35271U 05024K   19262.94628854  .00000217  00000-0  14603-4 0  9993
2 35271  97.4620 306.9470 0010985 241.5664 240.4318 15.16333043728466
CZ-2D DEB               
1 35272U 05024L   19263.95949372  .00000195  00000-0  13292-4 0  9995
2 35272  97.4504 307.2122 0011960 226.3194 253.8410 15.16871404763063
CZ-2D DEB               
1 35273U 05024M   19264.94487805  .00000222  00000-0  14175-4 0  9996
2 35273  97.4466 310.8135 0013004 202.9236 157.1419 15.18093656804522